Hourly Data Report for October 01, 2017

All times are specified in Local Standard Time (LST). Add 1 hour to adjust for Daylight Saving Time where and when it is observed.

HIGH LEVEL
ALBERTA

58°37'18.000" N
117°09'53.000" W
338.00 m
3073140
71066
YOJ

Related Data

No related data is available for this station

Download Data

Hourly Data (October 2017)
Hourly Data Report for October 1, 2017
Temp Definition
°C
Dew Point Temp Definition
°C
Rel Hum Definition
%
Wind Dir Definition
10's deg

Wind Spd Definition
km/h
Visibility Definition
km
Stn Press Definition
kPa
Hmdx Definition


Wind Chill Definition


Weather Definition


TIME
00:00 Legend Double Dagger 6.1 2.8 79 31 17 16.1 96.77     LegendNANA
01:00 Legend Double Dagger 4.9 2.3 83 32 11 16.1 96.85     LegendNANA
02:00 Legend Double Dagger 4.0 1.7 85 32 13 16.1 96.93     LegendNANA
03:00 Legend Double Dagger 3.7 1.7 87 31 17 16.1 97.03     LegendNANA
04:00 Legend Double Dagger 3.4 1.8 89 32 17 16.1 97.11     LegendNANA
05:00 Legend Double Dagger 3.3 1.5 88 33 17 16.1 97.21     LegendNANA
06:00 Legend Double Dagger 3.1 1.2 88 32 17 16.1 97.31     Rain
07:00 Legend Double Dagger 2.9 1.1 88 33 15 16.1 97.41     Rain
08:00 Legend Double Dagger 2.9 0.7 85 32 17 16.1 97.52     LegendNANA
09:00 Legend Double Dagger 2.9 0.8 86 32 15 16.1 97.61     LegendNANA
10:00 Legend Double Dagger 3.7 0.7 81 31 13 16.1 97.72     LegendNANA
11:00 Legend Double Dagger 4.1 0.4 77 34 21 16.1 97.81     LegendNANA
12:00 Legend Double Dagger 4.8 0.2 72 32 21 16.1 97.91     LegendNANA
13:00 Legend Double Dagger 5.4 -0.5 66 32 26 16.1 97.99     LegendNANA
14:00 Legend Double Dagger 5.6 -0.9 63 32 13 16.1 98.07     LegendNANA
15:00 Legend Double Dagger 6.4 -0.8 60 34 21 16.1 98.13     LegendNANA
16:00 Legend Double Dagger 6.5 -1.2 58 34 22 16.1 98.23     LegendNANA
17:00 Legend Double Dagger 5.9 -2.7 54 35 28 16.1 98.35     LegendNANA
18:00 Legend Double Dagger 4.7 -4.3 52 35 17 16.1 98.47     LegendNANA
19:00 Legend Double Dagger 3.3 -4.2 58 34 15 16.1 98.58     LegendNANA
20:00 Legend Double Dagger 1.3 -4.6 65 32 11 16.1 98.68     LegendNANA
21:00 Legend Double Dagger 2.4 -5.5 56 34 30 16.1 98.71     LegendNANA
22:00 Legend Double Dagger 1.9 -5.6 58 29 5 16.1 98.77     LegendNANA
23:00 Legend Double Dagger 1.1 -5.6 61 33 11 16.1 98.79     LegendNANA

Notes on Data Quality.

Legend

  • E = Estimated
  • M = Missing
  • NA = Not Available
  • ‡ = Partner data that is not subject to review by the National Climate Archives
Date modified: